{"data":{"norad_id":52578,"epoch":"2026-09-20T04:45:16.085376Z","epoch_age_seconds":89387,"freshness":"FRESH","line1":"1 52578U 22051AU  26263.19810284 -.00000006  00000+0  10975-4 0  9991","line2":"2 52578  53.1619 325.3762 0001332  87.1840 272.9315 15.34391488240954","mean_motion":15.34391488,"eccentricity":0.0001332,"inclination_deg":53.1619,"raan_deg":325.3762,"arg_perigee_deg":87.184,"mean_anomaly_deg":272.9315,"bstar":1.0975e-5,"rev_number":24095,"period_min":93.848278699523,"perigee_km":461.81733649199,"apogee_km":463.63974307178,"semimajor_km":6840.8655397819,"source":"CELESTRAK","updated_at":"2026-09-20T09:00:40.065271Z"}}